Latitude,Longitude,Height (m),Date (UTC),U_velocity (m/s),V_velocity (m/s),Wind_Speed (m/s),Wind_Dir (degrees)
39.5359001159668,-73.29296875,160,2021-01-01 00:00:00,2.3015103,-7.358097,7.7096395,342.63104
39.5359001159668,-73.29296875,160,2021-01-01 01:00:00,1.3792574,-10.127537,10.221025,352.24466
39.5359001159668,-73.29296875,160,2021-01-01 02:00:00,1.0252726,-8.761066,8.820854,353.32526
39.5359001159668,-73.29296875,160,2021-01-01 03:00:00,-0.6038184,-8.671719,8.692715,3.9831238
39.5359001159668,-73.29296875,160,2021-01-01 04:00:00,-2.844564,-7.628991,8.142055,20.448608
39.5359001159668,-73.29296875,160,2021-01-01 05:00:00,-4.9403,-8.835568,10.122936,29.211212
39.5359001159668,-73.29296875,160,2021-01-01 06:00:00,-6.0190835,-10.709369,12.284947,29.337677
39.5359001159668,-73.29296875,160,2021-01-01 07:00:00,-5.7986836,-11.123997,12.5446415,27.531982
39.5359001159668,-73.29296875,160,2021-01-01 08:00:00,-5.5000277,-9.472282,10.953284,30.141357
39.5359001159668,-73.29296875,160,2021-01-01 09:00:00,-5.625429,-7.6629906,9.506149,36.28253
39.5359001159668,-73.29296875,160,2021-01-01 10:00:00,-6.0046477,-6.096864,8.557309,44.563416
39.5359001159668,-73.29296875,160,2021-01-01 11:00:00,-6.680326,-4.832355,8.244902,54.11911
39.5359001159668,-73.29296875,160,2021-01-01 12:00:00,-7.242887,-3.625985,8.099826,63.40622
39.5359001159668,-73.29296875,160,2021-01-01 13:00:00,-7.8503294,-2.5157876,8.243595,72.23096
39.5359001159668,-73.29296875,160,2021-01-01 14:00:00,-7.958107,-2.0045946,8.2066965,75.861694
39.5359001159668,-73.29296875,160,2021-01-01 15:00:00,-7.945226,-1.2942806,8.049955,80.74777
39.5359001159668,-73.29296875,160,2021-01-01 16:00:00,-7.4523606,-0.57859004,7.474787,85.56055
39.5359001159668,-73.29296875,160,2021-01-01 17:00:00,-6.7042685,-0.19162488,6.7070065,88.36279
39.5359001159668,-73.29296875,160,2021-01-01 18:00:00,-6.8388014,-0.04778675,6.8389683,89.59964
39.5359001159668,-73.29296875,160,2021-01-01 19:00:00,-7.1226964,-0.053347006,7.122896,89.57086
39.5359001159668,-73.29296875,160,2021-01-01 20:00:00,-7.1549745,2.4969285,7.578147,109.237854
39.5359001159668,-73.29296875,160,2021-01-01 21:00:00,-6.5920258,1.1363894,6.689259,99.781006
39.5359001159668,-73.29296875,160,2021-01-01 22:00:00,-7.10637,2.4078944,7.503229,108.71823
39.5359001159668,-73.29296875,160,2021-01-01 23:00:00,-9.187581,1.6807843,9.340057,100.367096
39.5359001159668,-73.29296875,160,2021-01-02 00:00:00,-10.202942,2.4463184,10.492116,103.48306
39.5359001159668,-73.29296875,160,2021-01-02 01:00:00,-7.5194426,1.756643,7.7219048,103.14923
39.5359001159668,-73.29296875,160,2021-01-02 02:00:00,-12.026628,5.228418,13.113967,113.49637
39.5359001159668,-73.29296875,160,2021-01-02 03:00:00,-10.723157,7.5463634,13.112349,125.13574
39.5359001159668,-73.29296875,160,2021-01-02 04:00:00,-10.1992235,10.48523,14.627516,135.79218
39.5359001159668,-73.29296875,160,2021-01-02 05:00:00,-7.9904814,16.0902,17.965033,153.59076
39.5359001159668,-73.29296875,160,2021-01-02 06:00:00,3.8488774,19.209913,19.591698,191.32971
39.5359001159668,-73.29296875,160,2021-01-02 07:00:00,12.881358,18.97161,22.931448,214.17575
39.5359001159668,-73.29296875,160,2021-01-02 08:00:00,14.9594145,16.472103,22.251163,222.24467
39.5359001159668,-73.29296875,160,2021-01-02 09:00:00,14.452619,8.429607,16.731302,239.7468
39.5359001159668,-73.29296875,160,2021-01-02 10:00:00,13.661304,4.805724,14.481928,250.61932
39.5359001159668,-73.29296875,160,2021-01-02 11:00:00,14.8713,4.7699466,15.617553,252.21643
39.5359001159668,-73.29296875,160,2021-01-02 12:00:00,14.6083765,4.4387803,15.267857,253.09851
39.5359001159668,-73.29296875,160,2021-01-02 13:00:00,15.342226,2.01218,15.473616,262.52814
39.5359001159668,-73.29296875,160,2021-01-02 14:00:00,14.349113,1.8658098,14.469911,262.59143
39.5359001159668,-73.29296875,160,2021-01-02 15:00:00,15.768276,1.0068318,15.800387,266.34653
39.5359001159668,-73.29296875,160,2021-01-02 16:00:00,16.160368,-0.703226,16.175661,272.49167
39.5359001159668,-73.29296875,160,2021-01-02 17:00:00,15.528948,-1.3139799,15.58444,274.83655
39.5359001159668,-73.29296875,160,2021-01-02 18:00:00,16.6008,-1.8931208,16.708395,276.5058
39.5359001159668,-73.29296875,160,2021-01-02 19:00:00,15.421014,-5.8547287,16.495014,290.78973
39.5359001159668,-73.29296875,160,2021-01-02 20:00:00,13.734919,-7.52019,15.658903,298.70172
39.5359001159668,-73.29296875,160,2021-01-02 21:00:00,13.689713,-7.323076,15.525324,298.1438
39.5359001159668,-73.29296875,160,2021-01-02 22:00:00,10.8172245,-7.961005,13.430933,306.35144
39.5359001159668,-73.29296875,160,2021-01-02 23:00:00,8.834006,-9.151361,12.719555,316.0109
39.5359001159668,-73.29296875,160,2021-01-03 00:00:00,6.0054107,-10.057196,11.713758,329.15747
39.5359001159668,-73.29296875,160,2021-01-03 01:00:00,4.323792,-10.094009,10.981084,336.812
39.5359001159668,-73.29296875,160,2021-01-03 02:00:00,1.9231772,-10.310312,10.488143,349.43408
39.5359001159668,-73.29296875,160,2021-01-03 03:00:00,-0.3161775,-9.842202,9.84728,1.8399658
39.5359001159668,-73.29296875,160,2021-01-03 04:00:00,-1.2441435,-8.096256,8.191291,8.736237
39.5359001159668,-73.29296875,160,2021-01-03 05:00:00,-2.8463798,-5.9648657,6.6091986,25.51004
39.5359001159668,-73.29296875,160,2021-01-03 06:00:00,-4.7393475,-6.52039,8.060825,36.011536
39.5359001159668,-73.29296875,160,2021-01-03 07:00:00,-7.0874176,-5.9745054,9.269639,49.869995
39.5359001159668,-73.29296875,160,2021-01-03 08:00:00,-7.783997,-3.3095446,8.45835,66.966125
39.5359001159668,-73.29296875,160,2021-01-03 09:00:00,-9.147502,-2.2452695,9.419024,76.20929
39.5359001159668,-73.29296875,160,2021-01-03 10:00:00,-10.230358,-2.9130788,10.637023,74.105774
39.5359001159668,-73.29296875,160,2021-01-03 11:00:00,-8.009841,3.189405,8.621476,111.71173
39.5359001159668,-73.29296875,160,2021-01-03 12:00:00,-7.522222,5.0979958,9.08699,124.126465
39.5359001159668,-73.29296875,160,2021-01-03 13:00:00,-8.069998,4.2228923,9.10811,117.622284
39.5359001159668,-73.29296875,160,2021-01-03 14:00:00,-9.0650425,2.2708127,9.345138,104.063324
39.5359001159668,-73.29296875,160,2021-01-03 15:00:00,-10.808575,2.8080106,11.167373,104.5632
39.5359001159668,-73.29296875,160,2021-01-03 16:00:00,-11.254463,4.1742296,12.00363,110.34958
39.5359001159668,-73.29296875,160,2021-01-03 17:00:00,-9.884956,4.1792703,10.732132,112.91821
39.5359001159668,-73.29296875,160,2021-01-03 18:00:00,-8.691512,3.8008194,9.486233,113.61987
39.5359001159668,-73.29296875,160,2021-01-03 19:00:00,-10.870994,3.0536962,11.291747,105.690216
39.5359001159668,-73.29296875,160,2021-01-03 20:00:00,-11.374548,0.9160634,11.411376,94.60443
39.5359001159668,-73.29296875,160,2021-01-03 21:00:00,-12.69839,-0.7287727,12.719286,86.71533
39.5359001159668,-73.29296875,160,2021-01-03 22:00:00,-14.06074,-1.1373466,14.106665,85.37552
39.5359001159668,-73.29296875,160,2021-01-03 23:00:00,-15.3190975,-2.5121574,15.523713,80.68704
39.5359001159668,-73.29296875,160,2021-01-04 00:00:00,-12.583874,-6.447258,14.139343,62.87198
39.5359001159668,-73.29296875,160,2021-01-04 01:00:00,-8.00511,-6.268913,10.167646,51.934998
39.5359001159668,-73.29296875,160,2021-01-04 02:00:00,-12.189609,-9.486473,15.446027,52.10843
39.5359001159668,-73.29296875,160,2021-01-04 03:00:00,-11.589967,-9.203909,14.799975,51.54596
39.5359001159668,-73.29296875,160,2021-01-04 04:00:00,-9.742744,-9.945195,13.922212,44.41086
39.5359001159668,-73.29296875,160,2021-01-04 05:00:00,-9.805844,-10.166448,14.124845,43.965637
39.5359001159668,-73.29296875,160,2021-01-04 06:00:00,-10.329773,-8.884386,13.624849,49.30197
39.5359001159668,-73.29296875,160,2021-01-04 07:00:00,-8.149558,-7.192425,10.869511,48.569855
39.5359001159668,-73.29296875,160,2021-01-04 08:00:00,-4.7810173,-9.65655,10.7753,26.340302
39.5359001159668,-73.29296875,160,2021-01-04 09:00:00,-5.234037,-9.766665,11.080745,28.187225
39.5359001159668,-73.29296875,160,2021-01-04 10:00:00,-4.701531,-9.294792,10.416216,26.83139
39.5359001159668,-73.29296875,160,2021-01-04 11:00:00,-4.0685506,-9.80778,10.6181755,22.53009
39.5359001159668,-73.29296875,160,2021-01-04 12:00:00,-2.8764288,-9.345687,9.778329,17.107391
39.5359001159668,-73.29296875,160,2021-01-04 13:00:00,-2.161611,-9.672588,9.911182,12.597351
39.5359001159668,-73.29296875,160,2021-01-04 14:00:00,-1.2692188,-9.800821,9.882663,7.3788147
39.5359001159668,-73.29296875,160,2021-01-04 15:00:00,-1.2121979,-10.061175,10.133937,6.8700256
39.5359001159668,-73.29296875,160,2021-01-04 16:00:00,-1.0145406,-10.583334,10.63185,5.475769
39.5359001159668,-73.29296875,160,2021-01-04 17:00:00,-1.0269021,-9.628868,9.683472,6.087494
39.5359001159668,-73.29296875,160,2021-01-04 18:00:00,-1.6033593,-8.678614,8.82548,10.467285
39.5359001159668,-73.29296875,160,2021-01-04 19:00:00,-1.6867788,-7.752621,7.934,12.274841
39.5359001159668,-73.29296875,160,2021-01-04 20:00:00,-1.7436947,-7.495968,7.696103,13.095123
39.5359001159668,-73.29296875,160,2021-01-04 21:00:00,-1.639147,-7.460767,7.6387067,12.391144
39.5359001159668,-73.29296875,160,2021-01-04 22:00:00,-1.2047383,-7.1639094,7.264502,9.54599
39.5359001159668,-73.29296875,160,2021-01-04 23:00:00,-0.75818837,-6.451501,6.4958997,6.7027283
39.5359001159668,-73.29296875,160,2021-01-05 00:00:00,-0.124859676,-5.810023,5.8113647,1.2311096
39.5359001159668,-73.29296875,160,2021-01-05 01:00:00,1.2042866,-5.7400537,5.865025,348.15097
39.5359001159668,-73.29296875,160,2021-01-05 02:00:00,1.143174,-5.731813,5.844701,348.7207
39.5359001159668,-73.29296875,160,2021-01-05 03:00:00,1.0310879,-5.490695,5.5866694,349.36438
39.5359001159668,-73.29296875,160,2021-01-05 04:00:00,0.82769376,-5.755715,5.8149233,351.81674
39.5359001159668,-73.29296875,160,2021-01-05 05:00:00,0.35785797,-5.7236714,5.7348475,356.4224
39.5359001159668,-73.29296875,160,2021-01-05 06:00:00,0.25775057,-4.4875197,4.494916,356.7127
39.5359001159668,-73.29296875,160,2021-01-05 07:00:00,-0.1937896,-4.3112974,4.3156505,2.5736694
39.5359001159668,-73.29296875,160,2021-01-05 08:00:00,-0.44815448,-3.818117,3.8443282,6.694519
39.5359001159668,-73.29296875,160,2021-01-05 09:00:00,0.01661292,-4.2593575,4.25939,359.77652
39.5359001159668,-73.29296875,160,2021-01-05 10:00:00,0.029734066,-4.188998,4.189104,359.59332
39.5359001159668,-73.29296875,160,2021-01-05 11:00:00,0.19013287,-4.443206,4.447272,357.5497
39.5359001159668,-73.29296875,160,2021-01-05 12:00:00,-1.5318207,-5.346572,5.5616817,15.987274
39.5359001159668,-73.29296875,160,2021-01-05 13:00:00,-1.5091276,-5.0607433,5.280965,16.604736
39.5359001159668,-73.29296875,160,2021-01-05 14:00:00,-0.9631537,-5.9306808,6.008381,9.224396
39.5359001159668,-73.29296875,160,2021-01-05 15:00:00,0.69040215,-5.459689,5.503168,352.79294
39.5359001159668,-73.29296875,160,2021-01-05 16:00:00,0.89771605,-6.0468407,6.113115,351.55554
39.5359001159668,-73.29296875,160,2021-01-05 17:00:00,0.6964357,-6.591683,6.6283712,353.96887
39.5359001159668,-73.29296875,160,2021-01-05 18:00:00,0.5463693,-7.113159,7.134112,355.60767
39.5359001159668,-73.29296875,160,2021-01-05 19:00:00,0.0044871094,-7.2276487,7.22765,359.96442
39.5359001159668,-73.29296875,160,2021-01-05 20:00:00,-0.3568827,-7.3644857,7.373128,2.7743835
39.5359001159668,-73.29296875,160,2021-01-05 21:00:00,0.19482286,-6.6986885,6.701521,358.3341
39.5359001159668,-73.29296875,160,2021-01-05 22:00:00,1.1934383,-6.147355,6.26213,349.01337
39.5359001159668,-73.29296875,160,2021-01-05 23:00:00,1.4588488,-6.259511,6.4272633,346.88077
39.5359001159668,-73.29296875,160,2021-01-06 00:00:00,2.0172594,-6.0117598,6.341182,341.4507
39.5359001159668,-73.29296875,160,2021-01-06 01:00:00,1.1235396,-7.9835997,8.06227,351.98932
39.5359001159668,-73.29296875,160,2021-01-06 02:00:00,0.6036013,-8.2561865,8.278221,355.8186
39.5359001159668,-73.29296875,160,2021-01-06 03:00:00,0.39864746,-8.042437,8.052311,357.1623
39.5359001159668,-73.29296875,160,2021-01-06 04:00:00,0.80092895,-8.180241,8.219357,354.408
39.5359001159668,-73.29296875,160,2021-01-06 05:00:00,1.8472788,-7.2324386,7.4646235,345.6721
39.5359001159668,-73.29296875,160,2021-01-06 06:00:00,2.1246412,-8.646349,8.903564,346.1944
39.5359001159668,-73.29296875,160,2021-01-06 07:00:00,4.3153176,-7.776705,8.893767,330.97397
39.5359001159668,-73.29296875,160,2021-01-06 08:00:00,3.6532106,-8.483637,9.236776,336.7024
39.5359001159668,-73.29296875,160,2021-01-06 09:00:00,2.8842843,-9.247068,9.686453,342.6766
39.5359001159668,-73.29296875,160,2021-01-06 10:00:00,2.266143,-9.310413,9.582233,346.32028
39.5359001159668,-73.29296875,160,2021-01-06 11:00:00,2.9699082,-8.388663,8.898878,340.5041
39.5359001159668,-73.29296875,160,2021-01-06 12:00:00,3.6367197,-8.591929,9.329897,337.05844
39.5359001159668,-73.29296875,160,2021-01-06 13:00:00,3.3770614,-8.993164,9.606328,339.41812
39.5359001159668,-73.29296875,160,2021-01-06 14:00:00,3.1951494,-9.652499,10.167582,341.68454
39.5359001159668,-73.29296875,160,2021-01-06 15:00:00,2.7326293,-10.243386,10.601614,345.06305
39.5359001159668,-73.29296875,160,2021-01-06 16:00:00,3.6627548,-10.332442,10.962441,340.48105
39.5359001159668,-73.29296875,160,2021-01-06 17:00:00,4.742816,-9.729992,10.824372,334.0134
39.5359001159668,-73.29296875,160,2021-01-06 18:00:00,5.856656,-9.7551985,11.378239,329.02097
39.5359001159668,-73.29296875,160,2021-01-06 19:00:00,6.337437,-9.325315,11.274956,325.80017
39.5359001159668,-73.29296875,160,2021-01-06 20:00:00,6.4721494,-10.237623,12.11188,327.69922
39.5359001159668,-73.29296875,160,2021-01-06 21:00:00,6.384978,-9.535245,11.475575,326.193
39.5359001159668,-73.29296875,160,2021-01-06 22:00:00,6.1070337,-10.24629,11.928215,329.20404
39.5359001159668,-73.29296875,160,2021-01-06 23:00:00,5.6899343,-10.808437,12.214649,332.23615
39.5359001159668,-73.29296875,160,2021-01-07 00:00:00,4.1737924,-11.619832,12.346702,340.24194
39.5359001159668,-73.29296875,160,2021-01-07 01:00:00,7.4474206,-12.284765,14.365915,328.7744
39.5359001159668,-73.29296875,160,2021-01-07 02:00:00,6.7863765,-12.691421,14.39191,331.86563
39.5359001159668,-73.29296875,160,2021-01-07 03:00:00,5.781625,-12.169814,13.473365,334.5886
39.5359001159668,-73.29296875,160,2021-01-07 04:00:00,4.9414988,-11.997557,12.975352,337.61444
39.5359001159668,-73.29296875,160,2021-01-07 05:00:00,4.829028,-11.758396,12.711389,337.67264
39.5359001159668,-73.29296875,160,2021-01-07 06:00:00,3.6281917,-11.344479,11.91054,342.26468
39.5359001159668,-73.29296875,160,2021-01-07 07:00:00,2.628758,-10.640623,10.96053,346.123
39.5359001159668,-73.29296875,160,2021-01-07 08:00:00,2.8466778,-9.531327,9.9473505,343.37094
39.5359001159668,-73.29296875,160,2021-01-07 09:00:00,2.8591163,-9.894475,10.29928,343.88278
39.5359001159668,-73.29296875,160,2021-01-07 10:00:00,3.5459814,-9.311915,9.964224,339.15314
39.5359001159668,-73.29296875,160,2021-01-07 11:00:00,3.7545793,-8.973231,9.727062,337.2946
39.5359001159668,-73.29296875,160,2021-01-07 12:00:00,4.154465,-8.730375,9.668456,334.55194
39.5359001159668,-73.29296875,160,2021-01-07 13:00:00,4.5130997,-8.834605,9.920601,332.9401
39.5359001159668,-73.29296875,160,2021-01-07 14:00:00,4.4786386,-9.254524,10.281265,334.17578
39.5359001159668,-73.29296875,160,2021-01-07 15:00:00,4.8499203,-9.206415,10.405759,332.21985
39.5359001159668,-73.29296875,160,2021-01-07 16:00:00,5.138087,-9.244992,10.576853,330.936
39.5359001159668,-73.29296875,160,2021-01-07 17:00:00,5.485772,-8.540403,10.150477,327.28607
39.5359001159668,-73.29296875,160,2021-01-07 18:00:00,5.9833913,-8.200844,10.151591,323.88525
39.5359001159668,-73.29296875,160,2021-01-07 19:00:00,6.470376,-8.469538,10.658276,322.62167
39.5359001159668,-73.29296875,160,2021-01-07 20:00:00,6.5340104,-7.9265227,10.272442,320.5005
39.5359001159668,-73.29296875,160,2021-01-07 21:00:00,6.141024,-7.36856,9.5920725,320.19186
39.5359001159668,-73.29296875,160,2021-01-07 22:00:00,5.388593,-7.866275,9.534947,325.5879
39.5359001159668,-73.29296875,160,2021-01-07 23:00:00,4.8571486,-8.128192,9.468864,329.1388
39.5359001159668,-73.29296875,160,2021-01-08 00:00:00,3.8685305,-8.530545,9.366735,335.6061
39.5359001159668,-73.29296875,160,2021-01-08 01:00:00,3.0982323,-9.135716,9.64678,341.26645
39.5359001159668,-73.29296875,160,2021-01-08 02:00:00,2.7198431,-8.70615,9.121107,342.65094
39.5359001159668,-73.29296875,160,2021-01-08 03:00:00,2.0553694,-9.208378,9.434976,347.41745
39.5359001159668,-73.29296875,160,2021-01-08 04:00:00,1.8632327,-8.678011,8.875782,347.88214
39.5359001159668,-73.29296875,160,2021-01-08 05:00:00,0.27435166,-9.82528,9.82911,358.40054
39.5359001159668,-73.29296875,160,2021-01-08 06:00:00,-1.954561,-8.621856,8.840629,12.77298
39.5359001159668,-73.29296875,160,2021-01-08 07:00:00,-0.9403756,-5.5783324,5.6570396,9.568756
39.5359001159668,-73.29296875,160,2021-01-08 08:00:00,-0.49147308,-4.527853,4.5544486,6.1948853
39.5359001159668,-73.29296875,160,2021-01-08 09:00:00,-1.1304271,-5.139536,5.262385,12.404541
39.5359001159668,-73.29296875,160,2021-01-08 10:00:00,-1.1436868,-4.9918838,5.121223,12.904297
39.5359001159668,-73.29296875,160,2021-01-08 11:00:00,-1.1267835,-5.3407655,5.4583344,11.913422
39.5359001159668,-73.29296875,160,2021-01-08 12:00:00,-1.4998397,-5.2309904,5.4417624,15.998749
39.5359001159668,-73.29296875,160,2021-01-08 13:00:00,-2.2521205,-5.928489,6.341848,20.800842
39.5359001159668,-73.29296875,160,2021-01-08 14:00:00,-2.388372,-5.2003484,5.722582,24.667969
39.5359001159668,-73.29296875,160,2021-01-08 15:00:00,-1.6787719,-4.245471,4.5653367,21.575165
39.5359001159668,-73.29296875,160,2021-01-08 16:00:00,-1.6041149,-3.3614824,3.7246137,25.510681
39.5359001159668,-73.29296875,160,2021-01-08 17:00:00,-0.51177263,-3.4945412,3.5318167,8.331696
39.5359001159668,-73.29296875,160,2021-01-08 18:00:00,1.3433803,-1.1344497,1.7583079,310.18024
39.5359001159668,-73.29296875,160,2021-01-08 19:00:00,0.8434301,-3.921546,4.0112214,347.86197
39.5359001159668,-73.29296875,160,2021-01-08 20:00:00,1.1431266,-2.9830382,3.1945665,339.0327
39.5359001159668,-73.29296875,160,2021-01-08 21:00:00,2.0590446,-3.0200982,3.6552234,325.7146
39.5359001159668,-73.29296875,160,2021-01-08 22:00:00,0.07109292,-3.8306184,3.831278,358.93677
39.5359001159668,-73.29296875,160,2021-01-08 23:00:00,0.011605705,-4.651804,4.6518188,359.85706
39.5359001159668,-73.29296875,160,2021-01-09 00:00:00,-0.1098457,-5.577746,5.5788274,1.1282043
39.5359001159668,-73.29296875,160,2021-01-09 01:00:00,0.67435044,-8.940861,8.966255,355.68674
39.5359001159668,-73.29296875,160,2021-01-09 02:00:00,-0.64932144,-9.52214,9.544252,3.901001
39.5359001159668,-73.29296875,160,2021-01-09 03:00:00,-2.0065408,-9.398134,9.60995,12.051941
39.5359001159668,-73.29296875,160,2021-01-09 04:00:00,-3.4966073,-9.345909,9.978591,20.512451
39.5359001159668,-73.29296875,160,2021-01-09 05:00:00,-5.3200827,-10.013408,11.338943,27.981537
39.5359001159668,-73.29296875,160,2021-01-09 06:00:00,-6.6708083,-10.377373,12.336513,32.733826
39.5359001159668,-73.29296875,160,2021-01-09 07:00:00,-7.249738,-11.096285,13.254669,33.15851
39.5359001159668,-73.29296875,160,2021-01-09 08:00:00,-6.4231477,-11.89749,13.520617,28.363464
39.5359001159668,-73.29296875,160,2021-01-09 09:00:00,-5.177358,-12.921619,13.920247,21.834686
39.5359001159668,-73.29296875,160,2021-01-09 10:00:00,-4.327843,-13.918406,14.575742,17.272766
39.5359001159668,-73.29296875,160,2021-01-09 11:00:00,-5.4056897,-13.007964,14.08647,22.566193
39.5359001159668,-73.29296875,160,2021-01-09 12:00:00,-5.381385,-12.525981,13.63303,23.249237
39.5359001159668,-73.29296875,160,2021-01-09 13:00:00,-3.757138,-12.629422,13.176434,16.56726
39.5359001159668,-73.29296875,160,2021-01-09 14:00:00,-2.780593,-12.66995,12.97148,12.378113
39.5359001159668,-73.29296875,160,2021-01-09 15:00:00,-0.94333154,-12.163628,12.200152,4.434601
39.5359001159668,-73.29296875,160,2021-01-09 16:00:00,1.6591479,-10.831334,10.957672,351.2911
39.5359001159668,-73.29296875,160,2021-01-09 17:00:00,2.9356828,-11.310605,11.685376,345.44986
39.5359001159668,-73.29296875,160,2021-01-09 18:00:00,3.4327815,-11.627315,12.123466,343.5516
39.5359001159668,-73.29296875,160,2021-01-09 19:00:00,3.376931,-11.560028,12.043168,343.7158
39.5359001159668,-73.29296875,160,2021-01-09 20:00:00,3.6619365,-10.8913,11.490439,341.41602
39.5359001159668,-73.29296875,160,2021-01-09 21:00:00,3.4469032,-10.857089,11.391116,342.3864
39.5359001159668,-73.29296875,160,2021-01-09 22:00:00,3.7795377,-10.918023,11.553707,340.90546
39.5359001159668,-73.29296875,160,2021-01-09 23:00:00,3.921305,-12.027746,12.650823,341.9429
39.5359001159668,-73.29296875,160,2021-01-10 00:00:00,2.793472,-13.112925,13.407172,347.97394
39.5359001159668,-73.29296875,160,2021-01-10 01:00:00,2.4991214,-12.612909,12.858113,348.79257
39.5359001159668,-73.29296875,160,2021-01-10 02:00:00,2.647702,-13.963792,14.212594,349.2635
39.5359001159668,-73.29296875,160,2021-01-10 03:00:00,1.4613411,-14.635464,14.70824,354.29794
39.5359001159668,-73.29296875,160,2021-01-10 04:00:00,0.9426247,-14.921251,14.950995,356.38525
39.5359001159668,-73.29296875,160,2021-01-10 05:00:00,-0.19227438,-14.384116,14.385402,0.7658386
39.5359001159668,-73.29296875,160,2021-01-10 06:00:00,0.31692162,-12.629187,12.6331625,358.5625
39.5359001159668,-73.29296875,160,2021-01-10 07:00:00,-0.6330631,-11.023247,11.04141,3.2868652
39.5359001159668,-73.29296875,160,2021-01-10 08:00:00,-1.1623232,-10.311445,10.376748,6.4313354
39.5359001159668,-73.29296875,160,2021-01-10 09:00:00,-1.2550606,-10.911321,10.983265,6.5615234
39.5359001159668,-73.29296875,160,2021-01-10 10:00:00,-1.231228,-10.146567,10.220996,6.918701
39.5359001159668,-73.29296875,160,2021-01-10 11:00:00,-0.7055888,-9.313111,9.339802,4.332611
39.5359001159668,-73.29296875,160,2021-01-10 12:00:00,-0.15603928,-8.640595,8.642004,1.0345764
39.5359001159668,-73.29296875,160,2021-01-10 13:00:00,0.86349404,-8.078369,8.124388,353.89883
39.5359001159668,-73.29296875,160,2021-01-10 14:00:00,1.2709913,-8.073808,8.173236,351.05383
39.5359001159668,-73.29296875,160,2021-01-10 15:00:00,1.1541556,-8.037253,8.1196995,351.82816
39.5359001159668,-73.29296875,160,2021-01-10 16:00:00,1.4824305,-8.096575,8.231168,349.62445
39.5359001159668,-73.29296875,160,2021-01-10 17:00:00,1.8366628,-7.8853273,8.096401,346.88837
39.5359001159668,-73.29296875,160,2021-01-10 18:00:00,1.766746,-7.86114,8.057227,347.33356
39.5359001159668,-73.29296875,160,2021-01-10 19:00:00,1.4680976,-7.6238127,7.76388,349.10013
39.5359001159668,-73.29296875,160,2021-01-10 20:00:00,1.3638468,-6.8313093,6.9661226,348.70953
39.5359001159668,-73.29296875,160,2021-01-10 21:00:00,1.3389344,-6.1036344,6.2487674,347.6272
39.5359001159668,-73.29296875,160,2021-01-10 22:00:00,1.3814943,-5.5416684,5.711271,346.00192
39.5359001159668,-73.29296875,160,2021-01-10 23:00:00,1.650368,-5.1065493,5.3666153,342.08987
39.5359001159668,-73.29296875,160,2021-01-11 00:00:00,1.9889885,-5.106833,5.4804945,338.72028
39.5359001159668,-73.29296875,160,2021-01-11 01:00:00,1.7004342,-4.6894403,4.988219,340.06888
39.5359001159668,-73.29296875,160,2021-01-11 02:00:00,1.0109347,-4.8157706,4.9207354,348.14453
39.5359001159668,-73.29296875,160,2021-01-11 03:00:00,1.252165,-4.341834,4.5187874,343.9127
39.5359001159668,-73.29296875,160,2021-01-11 04:00:00,-0.21693638,-3.4629006,3.4696891,3.5846558
39.5359001159668,-73.29296875,160,2021-01-11 05:00:00,-0.14754419,-2.9351916,2.9388976,2.8776855
39.5359001159668,-73.29296875,160,2021-01-11 06:00:00,0.2211163,-1.4862969,1.5026547,351.53818
39.5359001159668,-73.29296875,160,2021-01-11 07:00:00,0.35404912,-2.0375009,2.068033,350.14236
39.5359001159668,-73.29296875,160,2021-01-11 08:00:00,0.66693014,-1.5180111,1.6580572,336.28198
39.5359001159668,-73.29296875,160,2021-01-11 09:00:00,1.0099043,-1.3515042,1.6871486,323.23126
39.5359001159668,-73.29296875,160,2021-01-11 10:00:00,1.1861045,-1.1986432,1.6862947,315.30124
39.5359001159668,-73.29296875,160,2021-01-11 11:00:00,0.99167687,-1.2292924,1.5794247,321.1067
39.5359001159668,-73.29296875,160,2021-01-11 12:00:00,1.2434274,-1.0448127,1.6241137,310.03928
39.5359001159668,-73.29296875,160,2021-01-11 13:00:00,1.2436385,-0.34898514,1.2916762,285.675